DB6TOM Weather Reports


time (UTC)temp
C
wind
direction
speed
KPH
gust
KPH
rain 1hr
cm
rain 24hr
cm
rain mn
cm
humidity
%
barometer
mb
20260506051234 11 294 3.2 11.3 0.00 0.00 0.00 92 1003.3
20260506050732 11 129 4.8 6.4 0.00 0.00 0.00 92 1003.4
20260506050233 11 205 1.6 8.0 0.00 0.00 0.00 92 1003.4
20260506044729 11 119 3.2 9.7 0.00 0.00 0.00 95 1003.5
20260506044227 11 158 3.2 6.4 0.00 0.00 0.00 96 1003.3
20260506043729 11 138 0.0 4.8 0.00 0.00 0.00 96 1003.3
20260506043229 11 0 1.6 6.4 0.00 0.00 0.00 96 1003.2
20260506042728 11 210 3.2 8.0 0.00 0.00 0.00 96 1003.2
20260506042226 10 82 1.6 8.0 0.00 0.00 0.00 96 1003.2
20260506041726 10 49 1.6 6.4 0.00 0.00 0.00 96 1003.2
20260506041227 10 37 3.2 4.8 0.00 0.00 0.00 96 1002.9
20260506040725 10 200 3.2 8.0 0.00 0.00 0.00 96 1003.1
20260506040223 10 128 3.2 8.0 0.00 0.00 0.00 96 1002.9
20260506035724 10 68 0.0 6.4 0.00 0.00 0.00 96 1002.9
20260506035222 10 95 3.2 4.8 0.00 0.00 0.00 96 1003.2
20260506034723 10 221 3.2 4.8 0.00 0.00 0.00 96 1003.2
20260506034224 11 164 1.6 8.0 0.00 0.00 0.00 96 1002.9
20260506033721 10 160 3.2 8.0 0.00 0.00 0.00 96 1003.1
20260506033220 10 262 1.6 4.8 0.00 0.00 0.00 96 1003.1
20260506032218 11 49 1.6 4.8 0.00 0.00 0.00 96 1003.0
20260506031719 10 212 1.6 8.0 0.00 0.00 0.00 96 1003.1
20260506031217 10 235 0.0 8.0 0.00 0.00 0.00 97 1003.1
20260506030721 10 221 3.2 8.0 0.00 0.00 0.00 97 1003.3
20260506030216 10 141 3.2 4.8 0.00 0.00 0.00 97 1003.0
20260506025722 10 228 3.2 4.8 0.00 0.00 0.00 97 1003.2
20260506025215 10 152 1.6 6.4 0.00 0.00 0.00 98 1003.3
20260506024213 10 137 3.2 4.8 0.00 0.00 0.00 98 1003.3
20260506023936 10 135 3.2 6.4 0.00 0.00 0.00 98 1003.4
20260506023213 10 161 4.8 6.4 0.00 0.00 0.00 98 1003.4
20260506022716 10 216 1.6 6.4 0.00 0.00 0.00 98 1003.3
20260506022211 10 55 1.6 8.0 0.00 0.00 0.00 98 1003.4
20260506021714 10 176 8.0 8.0 0.00 0.00 0.00 99 1003.5
20260506021211 10 171 3.2 6.4 0.00 0.00 0.00 99 1003.4
20260506020711 10 249 3.2 6.4 0.00 0.00 0.00 99 1003.3
20260506020209 10 153 3.2 6.4 0.00 0.00 0.00 99 1003.4
20260506015711 10 152 1.6 8.0 0.00 0.00 0.00 99 1003.4
20260506015209 10 131 6.4 8.0 0.00 0.00 0.00 99 1003.4
20260506014709 10 163 4.8 8.0 0.00 0.00 0.00 99 1003.4
20260506014207 10 153 4.8 6.4 0.00 0.00 0.00 99 1003.5
20260506013708 10 108 3.2 6.4 0.00 0.00 0.00 99 1003.6
20260506013206 10 45 1.6 6.4 0.00 0.00 0.00 99 1003.6
20260506012707 10 119 4.8 8.0 0.00 0.00 0.00 99 1003.8
20260506012205 10 141 4.8 8.0 0.00 0.00 0.00 99 1003.7
20260506011706 10 178 4.8 8.0 0.00 0.00 0.00 99 1003.7
20260506011203 10 134 3.2 9.7 0.00 0.00 0.00 99 1003.6
20260506010704 10 132 3.2 9.7 0.00 0.00 0.00 99 1003.7
20260506010203 10 140 8.0 8.0 0.00 0.00 0.00 99 1003.9
20260506005703 10 150 6.4 8.0 0.00 0.00 0.00 99 1003.9
20260506005202 10 152 3.2 8.0 0.00 0.00 0.00 99 1003.9
20260506004702 10 115 6.4 8.0 0.00 0.00 0.00 99 1003.9
20260506004201 10 136 3.2 8.0 0.00 0.00 0.00 99 1003.8
20260506003919 10 96 4.8 8.0 0.00 0.00 0.00 99 1004.1
20260506003424 10 131 3.2 8.0 0.00 0.00 0.00 98 1003.9
20260506002703 10 181 3.2 8.0 0.00 0.00 0.00 98 1004.2
20260506002159 10 122 6.4 8.0 0.00 0.00 0.00 98 1004.1
20260506001659 10 123 3.2 6.4 0.00 0.00 0.00 98 1004.4
20260506001419 10 108 3.2 8.0 0.00 0.00 0.00 98 1004.3
20260506000658 10 130 4.8 8.0 0.00 0.00 0.00 98 1004.6
20260506000156 10 165 4.8 8.0 0.00 0.00 0.00 98 1004.5
20260505235657 10 143 3.2 8.0 0.00 0.00 0.00 98 1004.6
20260505235155 10 141 6.4 8.0 0.00 0.00 0.00 98 1004.6
20260505234920 10 119 3.2 8.0 0.00 0.00 0.00 98 1004.6
20260505234153 10 152 1.6 8.0 0.00 0.00 0.00 98 1004.6
20260505233927 10 43 4.8 8.0 0.00 0.00 0.00 98 1004.5
20260505233152 10 96 3.2 8.0 0.00 0.00 0.00 98 1004.6
20260505232653 10 167 3.2 8.0 0.00 0.00 0.00 98 1004.9
20260505232151 10 79 4.8 9.7 0.00 0.00 0.00 98 1004.8
20260505231913 10 165 4.8 11.3 0.00 0.00 0.00 98 1004.8
20260505231150 10 183 9.7 11.3 0.00 0.00 0.00 98 1004.8
20260505230651 10 133 6.4 9.7 0.00 0.00 0.00 98 1004.9
20260505230411 10 155 4.8 12.9 0.00 0.00 0.00 98 1004.8
20260505225917 10 285 3.2 12.9 0.00 0.00 0.00 98 1004.8
20260505225406 10 177 8.0 9.7 0.00 0.00 0.00 98 1004.7
20260505224649 10 119 1.6 8.0 0.00 0.00 0.00 98 1004.6
20260505224147 10 123 3.2 8.0 0.00 0.00 0.00 98 1004.7
20260505223648 10 62 4.8 9.7 0.00 0.00 0.00 98 1004.7
20260505223146 10 146 1.6 9.7 0.00 0.00 0.00 97 1004.7
20260505222646 10 162 1.6 8.0 0.00 0.00 0.00 97 1004.6
20260505222144 10 141 3.2 6.4 0.00 0.00 0.00 97 1004.4
20260505221645 10 111 3.2 4.8 0.00 0.00 0.00 97 1004.4
20260505221143 10 131 3.2 4.8 0.00 0.00 0.00 97 1004.6
20260505220645 10 152 1.6 11.3 0.00 0.00 0.00 97 1004.5
20260505220410 10 122 4.8 11.3 0.00 0.00 0.00 97 1004.6
20260505215643 10 145 6.4 8.0 0.00 0.00 0.00 97 1004.8
20260505215142 10 153 4.8 6.4 0.00 0.00 0.00 97 1004.8
20260505214643 10 98 1.6 4.8 0.00 0.00 0.00 97 1005.0
20260505214140 10 130 1.6 4.8 0.00 0.00 0.00 97 1005.3
20260505213641 10 114 3.2 6.4 0.00 0.00 0.00 97 1005.3
20260505213139 10 128 3.2 6.4 0.00 0.00 0.00 97 1005.6
20260505212641 10 159 4.8 4.8 0.00 0.00 0.00 97 1005.6
20260505212138 10 97 3.2 4.8 0.00 0.00 0.00 96 1005.7
20260505211638 11 101 3.2 6.4 0.00 0.00 0.00 96 1005.8
20260505211410 11 122 4.8 6.4 0.00 0.00 0.00 96 1005.9
20260505210637 11 143 3.2 3.2 0.00 0.00 0.00 95 1006.0
20260505210354 11 127 1.6 3.2 0.00 0.00 0.00 95 1006.1
20260505205636 11 172 0.0 6.4 0.00 0.00 0.00 95 1005.9
20260505205134 11 175 1.6 11.3 0.00 0.00 0.00 94 1006.1
20260505204636 11 147 1.6 16.1 0.00 0.00 0.00 94 1006.3
20260505204133 11 334 3.2 16.1 0.00 0.00 0.00 95 1006.6
20260505203635 12 158 6.4 14.5 0.00 0.00 0.00 94 1006.1
20260505203133 12 169 4.8 8.0 0.00 0.00 0.00 95 1005.7
20260505202633 12 225 0.0 6.4 0.00 0.00 0.00 96 1005.8
20260505202132 12 320 0.0 4.8 0.00 0.00 0.00 96 1005.6
20260505201633 12 224 0.0 3.2 0.00 0.00 0.00 95 1005.7
20260505200633 12 219 1.6 4.8 0.00 0.00 0.00 95 1005.0
20260505200129 12 264 0.0 8.0 0.00 0.00 0.00 93 1004.8
20260505195631 12 129 0.0 9.7 0.00 0.00 0.00 93 1004.7
20260505195127 12 100 3.2 14.5 0.00 0.00 0.00 92 1004.6
20260505194628 12 140 6.4 14.5 0.00 0.00 0.00 92 1004.5
20260505194127 12 112 6.4 14.5 0.00 0.00 0.00 92 1004.3
20260505193854 12 87 11.3 12.9 0.00 0.00 0.00 92 1004.3
20260505193125 12 92 3.2 16.1 0.00 0.00 0.00 92 1004.5
20260505192626 12 102 6.4 16.1 0.00 0.00 0.00 92 1004.2
20260505192124 12 66 6.4 17.7 0.00 0.00 0.00 92 1004.1
20260505191626 12 80 6.4 17.7 0.00 0.00 0.00 92 1004.1
20260505191123 12 357 1.6 11.3 0.00 0.00 0.00 91 1004.3
20260505190625 12 80 3.2 11.3 0.00 0.00 0.00 90 1004.5
20260505190122 12 84 9.7 9.7 0.00 0.00 0.00 91 1004.6
20260505185858 12 62 3.2 9.7 0.00 0.00 0.00 91 1004.6
20260505184622 13 153 1.6 9.7 0.00 0.00 0.00 90 1004.6
20260505184122 13 126 3.2 8.0 0.00 0.00 0.00 89 1004.5
20260505183847 13 101 3.2 9.7 0.00 0.00 0.00 87 1004.5
20260505183119 14 95 3.2 9.7 0.00 0.00 0.00 85 1004.6
20260505182620 14 131 1.6 9.7 0.00 0.00 0.00 83 1004.7
20260505182118 14 132 4.8 6.4 0.00 0.00 0.00 82 1004.7
20260505181619 14 139 6.4 8.0 0.00 0.00 0.00 82 1004.7
20260505181117 14 142 3.2 8.0 0.00 0.00 0.00 82 1004.6
20260505180619 14 88 4.8 8.0 0.00 0.00 0.00 81 1004.6
20260505180115 14 96 1.6 8.0 0.00 0.00 0.00 81 1004.5
20260505175616 14 91 4.8 8.0 0.00 0.00 0.00 81 1004.7
20260505175339 15 89 3.2 11.3 0.00 0.00 0.00 80 1004.3
20260505174615 15 94 1.6 11.3 0.00 0.00 0.00 80 1004.2
20260505174113 15 79 3.2 9.7 0.00 0.00 0.00 81 1004.5
20260505173615 15 128 1.6 16.1 0.00 0.00 0.00 81 1004.4
20260505173335 15 95 3.2 16.1 0.00 0.00 0.00 81 1004.4
20260505172615 15 47 9.7 12.9 0.00 0.00 0.00 80 1004.4
20260505172111 15 106 4.8 12.9 0.00 0.00 0.00 80 1004.8
20260505171835 15 83 3.2 9.7 0.00 0.00 0.00 80 1004.8
20260505171110 15 71 4.8 11.3 0.00 0.00 0.00 80 1005.1
20260505170611 15 125 8.0 12.9 0.00 0.00 0.00 80 1005.1
20260505170108 15 114 4.8 12.9 0.00 0.00 0.00 79 1005.2
20260505165108 15 139 4.8 9.7 0.00 0.00 0.00 79 1005.4
20260505164608 16 96 3.2 9.7 0.00 0.00 0.00 78 1005.3
20260505164107 16 114 3.2 11.3 0.00 0.00 0.00 78 1005.3
20260505163607 16 63 8.0 14.5 0.00 0.00 0.00 77 1005.4
20260505163326 16 87 1.6 14.5 0.00 0.00 0.00 77 1005.2
20260505162605 16 118 3.2 8.0 0.00 0.00 0.00 77 1005.4
20260505162321 16 66 4.8 9.7 0.00 0.00 0.00 76 1005.4
20260505161604 16 73 3.2 14.5 0.00 0.00 0.00 76 1005.4
20260505161103 16 117 6.4 14.5 0.00 0.00 0.00 76 1005.3
20260505160604 16 125 9.7 11.3 0.00 0.00 0.00 75 1005.6
20260505160329 16 80 1.6 8.0 0.00 0.00 0.00 75 1005.5
20260505153058 16 109 6.4 8.0 0.00 0.00 0.00 75 1005.6
20260505152559 16 115 3.2 8.0 0.00 0.00 0.00 75 1005.8
20260505152057 16 117 3.2 11.3 0.00 0.00 0.00 75 1005.7
20260505151559 16 91 3.2 11.3 0.00 0.00 0.00 74 1005.7
20260505151056 16 73 1.6 11.3 0.00 0.00 0.00 73 1006.1
20260505150557 16 108 4.8 12.9 0.00 0.00 0.00 73 1006.1
20260505140549 17 25 4.8 9.7 0.00 0.00 0.00 71 1006.5
20260505125039 17 112 3.2 12.9 0.00 0.00 0.00 78 1006.7
20260505124759 17 98 3.2 12.9 0.00 0.00 0.00 77 1006.8
20260505124039 16 75 3.2 12.9 0.00 0.00 0.00 77 1006.7
20260505123540 16 53 9.7 11.3 0.00 0.00 0.00 77 1006.7
20260505123037 16 96 3.2 9.7 0.00 0.00 0.00 79 1006.9
20260505122538 16 103 9.7 11.3 0.00 0.00 0.00 79 1006.9
20260505122036 16 117 8.0 11.3 0.00 0.00 0.00 79 1007.0
20260505121537 16 136 4.8 9.7 0.00 0.00 0.00 77 1007.1
20260505121035 16 91 3.2 9.7 0.00 0.00 0.00 80 1007.1
20260505120536 16 144 1.6 8.0 0.00 0.00 0.00 80 1006.9
20260505120034 16 72 3.2 8.0 0.00 0.00 0.00 79 1007.2
20260505115757 16 164 3.2 12.9 0.00 0.00 0.00 81 1007.1
20260505114534 16 40 3.2 14.5 0.00 0.00 0.00 81 1007.3
20260505114032 17 44 9.7 11.3 0.00 0.00 0.00 78 1007.3
20260505113533 16 184 1.6 8.0 0.00 0.00 0.00 82 1007.3
20260505113252 16 116 1.6 9.7 0.00 0.00 0.00 85 1007.1
20260505112752 16 64 4.8 9.7 0.00 0.00 0.00 84 1007.4
20260505112029 15 130 1.6 8.0 0.00 0.00 0.00 84 1007.1
20260505111757 15 64 3.2 8.0 0.00 0.00 0.00 84 1007.3
20260505111028 15 34 0.0 8.0 0.00 0.00 0.00 85 1007.4
20260505110530 15 338 3.2 8.0 0.00 0.00 0.00 85 1007.7
20260505101748 15 114 1.6 4.8 0.00 0.00 0.00 88 1008.1
20260505101021 14 291 0.0 6.4 0.00 0.00 0.00 89 1008.0
20260505100751 14 169 3.2 6.4 0.00 0.00 0.00 88 1007.8
20260505100020 14 356 0.0 3.2 0.00 0.00 0.00 89 1008.0
20260505095241 14 231 0.0 3.2 0.00 0.00 0.00 89 1008.1
20260505094523 14 188 1.6 3.2 0.00 0.00 0.00 90 1008.0
20260505094018 13 63 0.0 3.2 0.00 0.00 0.00 90 1008.0
20260505093523 13 129 0.0 8.0 0.00 0.00 0.00 90 1007.9
20260505093017 13 123 0.0 8.0 0.00 0.00 0.00 89 1007.9
20260505092518 13 116 0.0 3.2 0.00 0.00 0.00 90 1008.0
20260505092243 13 91 1.6 4.8 0.00 0.00 0.00 89 1008.1
20260505091520 13 46 0.0 4.8 0.00 0.00 0.00 89 1008.1
20260505091015 13 150 1.6 9.7 0.00 0.00 0.00 89 1008.2
20260505090518 13 121 3.2 9.7 0.00 0.00 0.00 89 1008.0
20260505090014 13 115 4.8 9.7 0.00 0.00 0.00 89 1008.1
20260505085515 13 109 3.2 9.7 0.00 0.00 0.00 88 1008.1
20260505085013 13 96 4.8 9.7 0.00 0.00 0.00 88 1008.4
20260505084515 13 141 3.2 9.7 0.00 0.00 0.00 90 1008.1
20260505084012 13 100 6.4 9.7 0.00 0.00 0.00 92 1008.5
20260505083512 13 60 4.8 9.7 0.00 0.00 0.00 91 1008.3
20260505083230 13 123 3.2 9.7 0.00 0.00 0.00 91 1008.4
20260505082511 13 97 3.2 6.4 0.00 0.00 0.00 92 1008.3
20260505082009 13 179 3.2 6.4 0.00 0.00 0.00 91 1008.2
20260505081510 12 156 0.0 6.4 0.00 0.00 0.00 93 1008.4
20260505081008 12 122 1.6 4.8 0.00 0.00 0.00 93 1008.5
20260505080512 12 184 0.0 6.4 0.00 0.00 0.00 94 1008.3
20260505080007 12 171 3.2 6.4 0.00 0.00 0.00 94 1008.3
20260505075508 12 177 0.0 6.4 0.00 0.00 0.00 94 1008.2
20260505075006 12 147 3.2 8.0 0.00 0.00 0.00 94 1008.4
20260505074507 12 126 4.8 8.0 0.00 0.00 0.00 94 1008.4
20260505074233 12 145 6.4 8.0 0.00 0.00 0.00 94 1008.5
20260505073506 12 131 4.8 6.4 0.00 0.00 0.00 94 1008.6
20260505073228 12 223 1.6 6.4 0.00 0.00 0.00 95 1008.6
20260505072504 12 186 3.2 4.8 0.00 0.00 0.00 96 1008.4
20260505072219 12 44 3.2 4.8 0.00 0.00 0.00 96 1008.4
20260505071001 12 229 0.0 6.4 0.00 0.00 0.00 96 1008.5
20260505070502 11 114 3.2 6.4 0.00 0.00 0.00 96 1008.5
20260505070000 11 137 4.8 4.8 0.00 0.00 0.00 96 1008.5
20260505065501 11 131 3.2 4.8 0.00 0.00 0.00 97 1008.4
20260505065223 11 283 1.6 3.2 0.00 0.00 0.00 97 1008.6
20260505064500 11 141 0.0 4.8 0.00 0.00 0.00 96 1008.7
20260505063958 11 127 3.2 4.8 0.00 0.00 0.00 96 1008.3
20260505063459 12 229 1.6 4.8 0.00 0.00 0.00 96 1008.6
20260505062957 11 155 3.2 4.8 0.00 0.00 0.00 96 1008.7
20260505062457 11 19 1.6 4.8 0.00 0.00 0.00 96 1008.7
20260505061955 11 109 0.0 6.4 0.00 0.00 0.00 97 1008.9
20260505061456 11 122 3.2 6.4 0.00 0.00 0.00 97 1008.8
20260505060954 11 133 1.6 4.8 0.00 0.00 0.00 97 1008.7
20260505055954 11 110 3.2 4.8 0.00 0.00 0.00 97 1009.1